Location: Escondida
(34.1015°N, 106.8964°W)
Time: 13:14:37
(UTC+00:00)

BlueWalker 3 - Pass Details

Date: 23 February 2026
Orbit: 451 x 457 km, 53.2° (Epoch: 14 March)

Event Time Altitude Azimuth Distance (km) Brightness Sun altitude
Exits shadow 12:02:46 21° 175° (S) 1,089 3.6 -21.6°
Maximum altitude 12:04:27 31° 129° (SE) 818 3.4 -21.2°
Drops below altitude 10° 12:07:40 10° 65° (ENE) 1,594 5.4 -20.6°
Sets 12:09:57 0° 55° (NE) 2,470 6.4 -20.1°
